EW6338 Weather Reports


Display with metric or nautical units.
time (UTC)temp
F
wind
direction
speed
MPH
gust
MPH
rain 1hr
in
rain 24hr
in
rain mn
in
humidity
%
barometer
mb
20260510094531 48 272 0.0 0.0 0.00 0.00 0.00 98 1010.8
20260510093021 48 273 0.0 0.0 0.00 0.00 0.00 98 1010.6
20260510091521 49 272 0.0 0.0 0.00 0.00 0.00 98 1010.5
20260510090020 49 272 0.0 1.0 0.00 0.00 0.00 98 1010.4
20260510084525 49 131 0.0 0.0 0.00 0.00 0.00 98 1010.4
20260510083019 49 131 0.0 0.0 0.00 0.00 0.00 98 1010.4
20260510081518 49 131 0.0 0.0 0.00 0.00 0.00 98 1010.4
20260510080020 50 131 0.0 1.0 0.00 0.00 0.00 98 1010.3
20260510074517 49 131 0.0 0.0 0.00 0.00 0.00 98 1010.2
20260510073015 49 131 0.0 0.0 0.00 0.00 0.00 98 1010.0
20260510071521 49 131 0.0 0.0 0.00 0.00 0.00 98 1009.8
20260510070013 49 131 0.0 0.0 0.00 0.00 0.00 98 1010.1
20260510064512 49 131 0.0 0.0 0.00 0.00 0.00 98 1010.0
20260510063011 49 131 0.0 0.0 0.00 0.00 0.00 98 1010.2
20260510061511 49 131 0.0 0.0 0.00 0.00 0.00 98 1010.0
20260510060008 49 131 0.0 0.0 0.00 0.00 0.00 97 1010.2
20260510054506 49 131 0.0 0.0 0.00 0.00 0.00 98 1010.3
20260510053003 49 131 0.0 0.0 0.00 0.00 0.00 98 1010.6
20260510051502 48 131 0.0 1.0 0.00 0.00 0.00 98 1010.6
20260510050100 48 131 0.0 0.0 0.00 0.00 0.00 98 1010.7
20260510044611 48 131 0.0 0.0 0.00 0.00 0.00 98 1010.7
20260510043057 47 131 0.0 0.0 0.00 0.00 0.00 97 1010.5
20260510041558 47 131 0.0 0.0 0.00 0.00 0.00 97 1010.4
20260510040050 47 131 0.0 0.0 0.00 0.00 0.00 97 1010.8
20260510034550 47 131 0.0 0.0 0.00 0.00 0.00 97 1010.9
20260510033110 47 131 0.0 0.0 0.00 0.00 0.00 97 1011.0
20260510031549 47 131 0.0 0.0 0.00 0.00 0.00 97 1011.3
20260510030048 47 131 0.0 0.0 0.00 0.00 0.00 97 1011.2
20260510024546 47 131 0.0 0.0 0.00 0.00 0.00 97 1011.4
20260510023044 47 131 0.0 0.0 0.00 0.00 0.00 97 1011.6
20260510021544 47 131 0.0 0.0 0.00 0.00 0.00 97 1011.5
20260510020047 47 131 0.0 0.0 0.00 0.00 0.00 97 1011.7
20260510014544 46 131 0.0 0.0 0.00 0.00 0.00 97 1011.9
20260510013043 46 131 0.0 0.0 0.00 0.00 0.00 97 1011.7
20260510011543 46 131 0.0 1.0 0.00 0.00 0.00 96 1011.5
20260510010052 46 131 0.0 1.0 0.00 0.00 0.00 96 1011.4
20260510004541 46 132 0.0 1.0 0.00 0.00 0.00 96 1011.4
20260510003053 46 132 0.0 1.0 0.00 0.00 0.00 96 1011.7
20260510001545 46 131 0.0 1.0 0.00 0.00 0.00 96 1011.7
20260510000049 46 112 0.0 1.0 0.00 0.00 0.00 96 1011.6
20260509234546 46 112 0.0 0.0 0.00 0.00 0.00 96 1011.8
20260509233038 46 112 0.0 1.0 0.00 0.00 0.00 96 1011.5
20260509231538 46 230 0.0 0.0 0.00 0.00 0.00 96 1011.3
20260509230037 46 229 0.0 0.0 0.00 0.00 0.00 95 1011.3
20260509224537 46 230 0.0 0.0 0.00 0.00 0.00 95 1011.4
20260509223035 46 229 0.0 1.0 0.00 0.00 0.00 95 1011.4
20260509221535 46 229 0.0 0.0 0.00 0.00 0.00 95 1011.5
20260509220043 46 108 0.0 0.0 0.00 0.00 0.00 95 1011.4
20260509214540 46 108 0.0 1.0 0.00 0.00 0.00 95 1011.3
20260509213040 46 27 0.0 2.0 0.00 0.00 0.00 94 1011.5
20260509211537 46 117 0.0 2.0 0.00 0.00 0.00 94 1011.5
20260509210034 46 141 0.0 1.0 0.00 0.00 0.00 94 1011.5
20260509204541 46 77 0.0 4.0 0.00 0.00 0.00 93 1011.7
20260509203035 47 134 0.0 2.0 0.00 0.00 0.00 93 1011.9
20260509201532 47 96 0.0 2.0 0.00 0.00 0.00 93 1012.2
20260509200038 47 73 0.0 3.0 0.00 0.00 0.00 92 1012.3
20260509194539 47 123 0.0 4.0 0.00 0.00 0.00 92 1011.8
20260509193038 48 105 0.0 2.0 0.00 0.00 0.00 92 1011.3
20260509191529 48 43 0.0 3.0 0.00 0.00 0.00 92 1011.5
20260509190031 48 131 0.0 4.0 0.00 0.00 0.00 92 1011.5
20260509184533 48 86 0.0 3.0 0.00 0.00 0.00 91 1012.2
20260509183030 49 138 0.0 2.0 0.00 0.00 0.00 92 1012.7
20260509181524 49 100 0.0 2.0 0.00 0.00 0.00 92 1012.6
20260509180024 49 118 0.0 1.0 0.00 0.00 0.00 91 1012.5
20260509174523 49 121 0.0 2.0 0.00 0.00 0.00 92 1012.8
20260509173022 49 122 0.0 1.0 0.00 0.00 0.00 92 1012.8
20260509171524 49 131 0.0 0.0 0.00 0.00 0.00 93 1012.8
20260509170021 49 131 0.0 1.0 0.00 0.00 0.00 92 1013.1
20260509164521 48 131 0.0 1.0 0.00 0.00 0.00 91 1013.1
20260509163022 48 137 0.0 1.0 0.00 0.00 0.00 91 1013.0
20260509161519 48 111 0.0 0.0 0.00 0.00 0.00 90 1013.0
20260509160023 48 112 0.0 0.0 0.00 0.00 0.00 89 1013.2
20260509154521 48 111 0.0 0.0 0.00 0.00 0.00 89 1013.5
20260509153023 48 112 0.0 1.0 0.00 0.00 0.00 87 1013.6
20260509151518 48 133 0.0 0.0 0.00 0.00 0.00 87 1013.8
20260509150020 49 133 0.0 1.0 0.00 0.00 0.00 87 1013.9
20260509144516 49 133 0.0 1.0 0.00 0.00 0.00 85 1014.0
20260509143020 49 184 0.0 1.0 0.00 0.00 0.00 82 1014.1
20260509141515 49 129 0.0 1.0 0.00 0.00 0.00 80 1014.0
20260509140014 51 96 0.0 2.0 0.00 0.00 0.00 73 1013.9
20260509134514 52 145 0.0 1.0 0.00 0.00 0.00 69 1013.6
20260509133013 51 96 0.0 3.0 0.00 0.00 0.00 69 1013.5
20260509131527 51 110 0.0 2.0 0.00 0.00 0.00 68 1013.5
20260509130021 52 146 0.0 2.0 0.00 0.00 0.00 69 1013.8
20260509124505 51 266 0.0 1.0 0.00 0.00 0.00 73 1013.8
20260509123002 49 180 0.0 1.0 0.00 0.00 0.00 81 1014.0
20260509121612 48 150 0.0 0.0 0.00 0.00 0.00 85 1013.7
20260509120055 46 155 0.0 0.0 0.00 0.00 0.00 87 1013.6
20260509114551 44 244 0.0 1.0 0.00 0.00 0.00 90 1013.7
20260509113055 43 244 0.0 0.0 0.00 0.00 0.00 92 1013.9
20260509111556 42 244 0.0 0.0 0.00 0.00 0.00 92 1013.8
20260509110047 41 244 0.0 0.0 0.00 0.00 0.00 92 1013.9
20260509104548 40 244 0.0 0.0 0.00 0.00 0.00 93 1013.9
20260509103045 39 244 0.0 0.0 0.00 0.00 0.00 93 1013.9
20260509101544 38 244 0.0 0.0 0.00 0.00 0.00 92 1013.6
20260509100041 37 244 0.0 0.0 0.00 0.00 0.00 92 1013.3